Location: Newark
(40.9833°N, 0.0333°W)
Time: 17:33:44
(UTC+00:00)

Transit 4A - Pass Details

Date: 28 October 2020
Orbit: 862 x 982 km, 66.8° (Epoch: 28 November)

Event Time Altitude Azimuth Distance (km) Brightness Sun altitude
Rises 00:07:03 0° 330° (NNW) 3,693 - -61.8°
Reaches altitude 10° 00:09:38 10° 332° (NNW) 2,738 - -61.7°
Maximum altitude 00:16:05 82° 59° (ENE) 983 - -61.3°
Drops below altitude 10° 00:22:22 10° 149° (SSE) 2,671 - -61.0°
Sets 00:24:52 0° 150° (SSE) 3,597 - -60.8°
